Location: Heiligenberg
(48.5381°N, 7.3897°E)
Time: 02:56:56
(UTC+00:00)

Cosmos 2333 Rocket - Pass Details

Date: 26 May 2022
Orbit: 839 x 863 km, 70.8° (Epoch: 26 June)

Event Time Altitude Azimuth Distance (km) Brightness Sun altitude
Exits shadow 00:19:42 15° 249° (WSW) 2,106 4.0 -19.4°
Maximum altitude 00:23:48 36° 310° (NW) 1,314 3.4 -19.2°
Drops below altitude 10° 00:29:01 10° 16° (NNE) 2,480 5.9 -19.0°
Sets 00:31:42 0° 26° (NNE) 3,423 6.9 -18.9°
